This demonstration page uses our WeatherBlox Daily Observations layout. Learn more.

39.92423, -83.80882

Hourly Observations for August 3, 2018

Temp ( °F °C ) Dew Point ( °F °C ) Humidity (%) Winds ( mph kmh ) Pressure ( in mb ) Visibility ( mi km ) Precip ( " mm )
12:56 am 00:56 Clear 67 19.4 66 18.9 97 97 S 5 7 30.07 1018 10 16.0934 0 0
1:56 am 01:56 Clear 66 18.9 65 18.3 96 96 SSE 3 6 30.06 1018 10 16.0934 0 0
2:56 am 02:56 Clear 64 17.8 64 17.8 100 100 Calm 30.06 1018 9 14.48406 0 0
3:43 am 03:43 Clear with Mist and Fog 63 17 63 17 100 100 SSE 3 6 30.09 1019 1.5 2.41401 0 0
3:49 am 03:49 Clear with Mist and Fog 63 17 63 17 100 100 Calm 30.09 1019 0.75 1.207005 0 0
3:56 am 03:56 Clear with Fog 63 17.2 63 17.2 100 100 Calm 30.06 1018 0.5 0.80467 0 0
4:11 am 04:11 Clear with Mist and Fog 63 17 63 17 100 100 Calm 30.09 1019 0.75 1.207005 0 0
4:16 am 04:16 Clear with Mist and Fog 61 16 61 16 100 100 Calm 30.09 1019 1.25 2.011675 0 0
4:24 am 04:24 Clear with Mist and Fog 61 16 61 16 100 100 Calm 30.09 1019 5 8.0467 0 0
4:50 am 04:50 Mostly Clear with Mist and Fog 61 16 61 16 100 100 Calm 30.09 1019 1.75 2.816345 0 0
4:56 am 04:56 Partly Cloudy with Mist and Fog 60 15.6 60 15.6 100 100 Calm 30.08 1019 1.25 2.011675 0 0
5:07 am 05:07 Mostly Cloudy with Mist and Fog 61 16 61 16 100 100 Calm 30.09 1019 2 3.21868 0 0
5:11 am 05:11 Mostly Cloudy with Mist and Fog 61 16 61 16 100 100 SE 3 6 30.09 1019 1 1.60934 0 0
5:14 am 05:14 Mostly Cloudy with Fog 61 16 61 16 100 100 ESE 3 6 30.09 1019 0.5 0.80467 0 0
5:25 am 05:25 Cloudy with Mist and Fog 61 16 61 16 100 100 Calm 30.09 1019 1 1.60934 0 0
5:32 am 05:32 Cloudy with Mist and Fog 61 16 61 16 100 100 Calm 30.09 1019 1.25 2.011675 0 0
5:34 am 05:34 Cloudy with Mist and Fog 61 16 61 16 100 100 Calm 30.09 1019 0.75 1.207005 0 0
5:45 am 05:45 Cloudy with Mist and Fog 61 16 61 16 100 100 Calm 30.09 1019 1.25 2.011675 0 0
5:48 am 05:48 Cloudy with Mist and Fog 61 16 61 16 100 100 Calm 30.09 1019 3 4.82802 0 0
5:56 am 05:56 Mostly Cloudy with Mist and Fog 61 16.1 61 16.1 100 100 Calm 30.07 1018 5 8.0467 0 0
6:07 am 06:07 Partly Cloudy with Mist and Fog 61 16 61 16 100 100 Calm 30.09 1019 6 9.65604 0 0
6:50 am 06:50 Partly Cloudy with Mist and Fog 61 16 61 16 100 100 Calm 30.09 1019 1.5 2.41401 0 0
6:51 am 06:51 Mostly Cloudy with Mist and Fog 61 16 61 16 100 100 Calm 30.09 1019 1 1.60934 0 0
6:56 am 06:56 Mostly Cloudy with Mist and Fog 60 15.6 60 15.6 100 100 Calm 30.09 1019 0.75 1.207005 0 0
6:58 am 06:58 Mostly Cloudy with Fog 61 16 61 16 100 100 Calm 30.09 1019 0.25 0.402335 0 0
7:07 am 07:07 Mostly Cloudy with Mist and Fog 61 16 61 16 100 100 Calm 30.12 1020 0.75 1.207005 0 0
7:09 am 07:09 Mostly Cloudy with Mist and Fog 61 16 61 16 100 100 Calm 30.12 1020 3 4.82802 0 0
7:17 am 07:17 Mostly Cloudy with Fog 61 16 61 16 100 100 Calm 30.12 1020 0.25 0.402335 0 0
7:25 am 07:25 Mostly Cloudy with Fog 61 16 61 16 100 100 Calm 30.12 1020 0.5 0.80467 0 0
7:32 am 07:32 Cloudy with Mist and Fog 61 16 61 16 100 100 Calm 30.12 1020 0.75 1.207005 0 0
7:35 am 07:35 Cloudy with Mist and Fog 61 16 61 16 100 100 Calm 30.12 1020 2 3.21868 0 0
7:42 am 07:42 Mostly Cloudy with Mist and Fog 61 16 61 16 100 100 Calm 30.12 1020 1.5 2.41401 0 0
7:56 am 07:56 Partly Cloudy with Mist and Fog 63 17.2 63 17.2 100 100 Calm 30.11 1020 1.75 2.816345 0 0
8:04 am 08:04 Partly Cloudy with Mist and Fog 64 18 64 18 100 100 Calm 30.12 1020 2.5 4.02335 0 0
8:27 am 08:27 Sunny with Mist and Fog 68 20 68 20 100 100 Calm 30.09 1019 3 4.82802 0 0
8:56 am 08:56 Sunny with Mist and Fog 71 21.7 69 20.6 94 94 SW 6 9 30.1 1019 6 9.65604 0 0
9:56 am 09:56 Sunny 75 23.9 70 21.1 84 84 WSW 6 9 30.11 1020 10 16.0934 0 0
10:56 am 10:56 Sunny 78 25.6 70 21.1 76 76 WSW 7 11 30.1 1019 10 16.0934 0 0
11:56 am 11:56 Partly Cloudy 80 26.7 69 20.6 69 69 WSW 8 13 30.11 1020 10 16.0934 0 0
12:56 pm 12:56 Mostly Sunny 82 27.8 69 20.6 65 65 W 9 15 30.1 1019 10 16.0934 0 0
1:56 pm 13:56 Partly Cloudy 82 27.8 66 18.9 58 58 SW 6 9 30.09 1019 10 16.0934 0 0
2:56 pm 14:56 Mostly Sunny 84 28.9 67 19.4 57 57 SW 8 13 30.08 1019 10 16.0934 0 0
3:56 pm 15:56 Mostly Cloudy 83 28.3 65 18.3 55 55 WSW 5 7 30.07 1018 10 16.0934 0 0
4:56 pm 16:56 Cloudy 83 28.3 67 19.4 59 59 Calm 30.06 1018 10 16.0934 0 0
5:56 pm 17:56 Partly Cloudy 80 26.7 69 20.6 69 69 SSW 5 7 30.06 1018 10 16.0934 0 0
6:56 pm 18:56 Partly Cloudy 82 27.8 70 21.1 67 67 W 8 13 30.05 1018 10 16.0934 0 0
7:34 pm 19:34 Sunny with Nearby Thunderstorms 81 27 70 21 70 70 SW 6 9 30 1016 10 16.0934 0 0
7:54 pm 19:54 Sunny 79 26 72 22 79 79 Calm 30 1016 10 16.0934 0 0
7:56 pm 19:56 Sunny 79 26.1 71 21.7 77 77 Calm 30.06 1018 10 16.0934 0 0
8:18 pm 20:18 Sunny with Nearby Thunderstorms 75 24 68 20 78 78 S 6 9 30.06 1018 10 16.0934 0 0
8:22 pm 20:22 Sunny with Nearby Thunderstorms 75 24 68 20 78 78 SSE 6 9 30.06 1018 10 16.0934 0 0
8:33 pm 20:33 Sunny 73 23 68 20 83 83 S 8 13 30.06 1018 10 16.0934 0 0
8:56 pm 20:56 Clear 72 22.2 67 19.4 84 84 SSE 8 13 30.07 1018 10 16.0934 0 0
9:56 pm 21:56 Mostly Clear 71 21.7 68 20 90 90 S 6 9 30.09 1019 10 16.0934 0 0
10:56 pm 22:56 Clear 69 20.6 68 20 96 96 S 6 9 30.1 1019 10 16.0934 0 0
11:56 pm 23:56 Clear 70 21.1 66 18.9 87 87 S 5 7 30.09 1019 10 16.0934 0 0

Powered by AerisWeather